,,PA_Meas_PMT16A,,PR_Meas_QMR101_102,,RH_Meas_QMH101,,SR_Meas_QMS101,,TA_Meas_QMH101,,GenWind,,GenWind,
time,status,PA,status,PR,status,RH,status,SR,status,TA,status,DirAvg,status,SpdAvg,
2011-11-28, 00:00:04,VALID,915.921,VALID,0,VALID,97.0842,VALID,0,VALID,21.0486,VALID,84,VALID,0.084375,
2011-11-28, 00:01:04,VALID,915.884,VALID,0,VALID,97.0766,VALID,0,VALID,21.008,VALID,84,VALID,0.209766,
2011-11-28, 00:02:04,VALID,915.898,VALID,0,VALID,97.1147,VALID,0,VALID,21.0291,VALID,84,VALID,0.238281,
2011-11-28, 00:03:04,VALID,915.885,VALID,0,VALID,97.1299,VALID,0,VALID,21.047,VALID,84,VALID,0.289063,
2011-11-28, 00:04:04,VALID,915.857,VALID,0,VALID,97.0994,VALID,0,VALID,21.0275,VALID,84,VALID,0.289063,
2011-11-28, 00:05:04,VALID,915.867,VALID,0,VALID,97.069,VALID,0,VALID,21.0291,VALID,84,VALID,0.223828,
2011-11-28, 00:06:04,VALID,915.896,VALID,0,VALID,97.0994,VALID,0,VALID,21.0291,VALID,84,VALID,0,
2011-11-28, 00:07:04,VALID,915.866,VALID,0,VALID,97.0766,VALID,0,VALID,21.0096,VALID,84,VALID,0,
2011-11-28, 00:08:04,VALID,915.855,VALID,0,VALID,97.0766,VALID,0,VALID,20.9885,VALID,84,VALID,0,
2011-11-28, 00:09:04,VALID,915.861,VALID,0,VALID,97.1147,VALID,0,VALID,21.008,VALID,84,VALID,0,
2011-11-28, 00:10:04,VALID,915.816,VALID,0,VALID,97.1071,VALID,0,VALID,21.008,VALID,84,VALID,0,
2011-11-28, 00:11:04,VALID,915.819,VALID,0,VALID,97.0994,VALID,0,VALID,21.008,VALID,84,VALID,0,
2011-11-28, 00:12:04,VALID,915.815,VALID,0,VALID,97.1223,VALID,0,VALID,20.9885,VALID,84,VALID,0,
2011-11-28, 00:13:04,VALID,915.834,VALID,0,VALID,97.1223,VALID,0,VALID,21.008,VALID,84,VALID,0,
2011-11-28, 00:14:04,VALID,915.881,VALID,0,VALID,97.1147,VALID,0,VALID,21.0291,VALID,84,VALID,0,
2011-11-28, 00:15:04,VALID,915.841,VALID,0,VALID,97.1071,VALID,0,VALID,21.0096,VALID,84,VALID,0,
2011-11-28, 00:16:04,VALID,915.867,VALID,0,VALID,97.1071,VALID,0,VALID,21.0096,VALID,84,VALID,0,
2011-11-28, 00:17:04,VALID,915.857,VALID,0,VALID,97.1376,VALID,0,VALID,21.0064,VALID,84,VALID,0,
2011-11-28, 00:18:04,VALID,915.857,VALID,0,VALID,97.1299,VALID,0,VALID,21.0064,VALID,84,VALID,0,
2011-11-28, 00:19:04,VALID,915.802,VALID,0,VALID,97.1604,VALID,0,VALID,21.047,VALID,84,VALID,0,
2011-11-28, 00:20:04,VALID,915.81,VALID,0,VALID,97.1528,VALID,0.107441,VALID,21.047,VALID,84,VALID,0,
2011-11-28, 00:21:04,VALID,915.799,VALID,0,VALID,97.1299,VALID,0,VALID,21.0275,VALID,84,VALID,0,
2011-11-28, 00:22:04,VALID,915.8,VALID,0,VALID,97.0994,VALID,0,VALID,21.008,VALID,84,VALID,0,
2011-11-28, 00:23:04,VALID,915.789,VALID,0,VALID,97.1071,VALID,0,VALID,21.008,VALID,84,VALID,0,
2011-11-28, 00:24:04,VALID,915.808,VALID,0,VALID,97.069,VALID,0,VALID,20.9885,VALID,84,VALID,0,
2011-11-28, 00:25:04,VALID,915.804,VALID,0,VALID,97.0766,VALID,0,VALID,20.9479,VALID,84,VALID,0,
2011-11-28, 00:26:04,VALID,915.805,VALID,0,VALID,97.0994,VALID,0.107441,VALID,20.969,VALID,84,VALID,0,
2011-11-28, 00:27:04,VALID,915.814,VALID,0,VALID,97.0842,VALID,0,VALID,20.9495,VALID,84,VALID,0.761328,
2011-11-28, 00:28:04,VALID,915.812,VALID,0,VALID,97.1223,VALID,0.107441,VALID,20.9495,VALID,84,VALID,0.402734,
2011-11-28, 00:29:04,VALID,915.83,VALID,0,VALID,97.1147,VALID,0,VALID,20.9089,VALID,84,VALID,0.5625,
2011-11-28, 00:30:04,VALID,915.864,VALID,0,VALID,97.1299,VALID,0,VALID,20.93,VALID,84,VALID,0.396484,
2011-11-28, 00:31:04,VALID,915.868,VALID,0,VALID,97.1376,VALID,0,VALID,20.93,VALID,84,VALID,0.630078,
2011-11-28, 00:32:04,VALID,915.895,VALID,0,VALID,97.1528,VALID,0.107441,VALID,20.8894,VALID,84,VALID,0.733203,
2011-11-28, 00:33:04,VALID,915.901,VALID,0,VALID,97.1376,VALID,0.107441,VALID,20.8894,VALID,84,VALID,0.742188,
2011-11-28, 00:34:04,VALID,915.901,VALID,0,VALID,97.1604,VALID,0.107441,VALID,20.8894,VALID,84,VALID,0.460938,
2011-11-28, 00:35:04,VALID,915.903,VALID,0,VALID,97.1833,VALID,0,VALID,20.9105,VALID,84,VALID,0.141406,
2011-11-28, 00:36:04,VALID,915.886,VALID,0,VALID,97.2138,VALID,0,VALID,20.9284,VALID,84,VALID,0,
2011-11-28, 00:37:04,VALID,915.881,VALID,0,VALID,97.1986,VALID,0.107441,VALID,20.9284,VALID,84,VALID,0.223438,
2011-11-28, 00:38:04,VALID,915.877,VALID,0,VALID,97.1681,VALID,0,VALID,20.9495,VALID,84,VALID,0.170703,
2011-11-28, 00:39:04,VALID,915.861,VALID,0,VALID,97.1604,VALID,0.107441,VALID,20.9495,VALID,84,VALID,0.00429688,
2011-11-28, 00:40:04,VALID,915.867,VALID,0,VALID,97.1604,VALID,0,VALID,20.9089,VALID,84,VALID,0.254687,
2011-11-28, 00:41:04,VALID,915.859,VALID,0,VALID,97.1376,VALID,0.107441,VALID,20.9089,VALID,84,VALID,0.290234,
2011-11-28, 00:42:04,VALID,915.895,VALID,0,VALID,97.1452,VALID,0.107441,VALID,20.9284,VALID,84,VALID,0,
2011-11-28, 00:43:04,VALID,915.857,VALID,0,VALID,97.1452,VALID,0.107441,VALID,20.9089,VALID,84,VALID,0,
2011-11-28, 00:44:04,VALID,915.865,VALID,0,VALID,97.1528,VALID,0,VALID,20.9089,VALID,84,VALID,0.352344,
2011-11-28, 00:45:04,VALID,915.894,VALID,0,VALID,97.1528,VALID,0.107441,VALID,20.93,VALID,84,VALID,0.269141,
2011-11-28, 00:46:04,VALID,915.838,VALID,0,VALID,97.1757,VALID,0,VALID,20.9284,VALID,84,VALID,0.597656,
2011-11-28, 00:47:04,VALID,915.803,VALID,0,VALID,97.1604,VALID,0,VALID,20.9105,VALID,84,VALID,0.130469,
2011-11-28, 00:48:04,VALID,915.771,VALID,0,VALID,97.1986,VALID,0,VALID,20.9105,VALID,84,VALID,0.288281,
2011-11-28, 00:49:04,VALID,915.748,VALID,0,VALID,97.1757,VALID,0,VALID,20.9105,VALID,84,VALID,0.075,
2011-11-28, 00:50:04,VALID,915.729,VALID,0,VALID,97.1757,VALID,0,VALID,20.9105,VALID,84,VALID,0.0046875,
2011-11-28, 00:51:04,VALID,915.714,VALID,0,VALID,97.2138,VALID,0,VALID,20.9511,VALID,84,VALID,0,
2011-11-28, 00:52:04,VALID,915.632,VALID,0,VALID,97.2367,VALID,0,VALID,20.9901,VALID,84,VALID,0,
2011-11-28, 00:53:04,VALID,915.656,VALID,0,VALID,97.229,VALID,0,VALID,20.9885,VALID,84,VALID,0,
2011-11-28, 00:54:04,VALID,915.623,VALID,0,VALID,97.1681,VALID,0,VALID,20.9901,VALID,84,VALID,0,
2011-11-28, 00:55:04,VALID,915.602,VALID,0,VALID,97.1986,VALID,0,VALID,21.0096,VALID,84,VALID,0,
2011-11-28, 00:56:04,VALID,915.594,VALID,0,VALID,97.1528,VALID,0,VALID,20.969,VALID,84,VALID,0.180078,
2011-11-28, 00:57:04,VALID,915.559,VALID,0,VALID,97.1299,VALID,0,VALID,20.9901,VALID,84,VALID,0,
2011-11-28, 00:58:04,VALID,915.579,VALID,0,VALID,97.1604,VALID,0,VALID,20.9901,VALID,84,VALID,0,
2011-11-28, 00:59:04,VALID,915.577,VALID,0,VALID,97.1909,VALID,0,VALID,20.9885,VALID,84,VALID,0.00117188,
2011-11-28, 01:00:04,VALID,915.557,VALID,0,VALID,97.2062,VALID,0,VALID,21.008,VALID,84,VALID,0,
2011-11-28, 01:01:04,VALID,915.552,VALID,0,VALID,97.1299,VALID,0,VALID,21.008,VALID,84,VALID,0.289063,
2011-11-28, 01:02:04,VALID,915.525,VALID,0,VALID,97.1376,VALID,0,VALID,20.9885,VALID,84,VALID,0.463281,
2011-11-28, 01:03:04,VALID,915.525,VALID,0,VALID,97.0842,VALID,0,VALID,20.9901,VALID,84,VALID,0.526563,
2011-11-28, 01:04:04,VALID,915.502,VALID,0,VALID,97.0842,VALID,0,VALID,20.9706,VALID,84,VALID,0.461719,
2011-11-28, 01:05:04,VALID,915.516,VALID,0,VALID,97.0766,VALID,0,VALID,20.9706,VALID,84,VALID,0.422266,
2011-11-28, 01:06:04,VALID,915.51,VALID,0,VALID,97.0918,VALID,0,VALID,20.93,VALID,84,VALID,0.110547,
2011-11-28, 01:07:04,VALID,915.511,VALID,0,VALID,97.1223,VALID,0,VALID,20.93,VALID,84,VALID,0.393359,
2011-11-28, 01:08:04,VALID,915.549,VALID,0,VALID,97.1223,VALID,0,VALID,20.9706,VALID,84,VALID,0.209766,
2011-11-28, 01:09:04,VALID,915.547,VALID,0,VALID,97.1604,VALID,0,VALID,20.9511,VALID,84,VALID,0.246094,
2011-11-28, 01:10:04,VALID,915.551,VALID,0,VALID,97.1376,VALID,0,VALID,20.9706,VALID,84,VALID,0.422266,
2011-11-28, 01:11:04,VALID,915.544,VALID,0,VALID,97.1452,VALID,0,VALID,20.9706,VALID,84,VALID,0.025,
2011-11-28, 01:12:04,VALID,915.545,VALID,0,VALID,97.1528,VALID,0,VALID,20.9706,VALID,84,VALID,0.217969,
2011-11-28, 01:13:04,VALID,915.526,VALID,0,VALID,97.1681,VALID,0,VALID,20.9706,VALID,84,VALID,0.272656,
2011-11-28, 01:14:04,VALID,915.492,VALID,0,VALID,97.1604,VALID,0,VALID,20.9706,VALID,84,VALID,0,
2011-11-28, 01:15:04,VALID,915.505,VALID,0,VALID,97.1757,VALID,0,VALID,20.9706,VALID,84,VALID,0,
2011-11-28, 01:16:04,VALID,915.488,VALID,0,VALID,97.1604,VALID,0,VALID,20.9495,VALID,84,VALID,0,
2011-11-28, 01:17:04,VALID,915.482,VALID,0,VALID,97.1757,VALID,0,VALID,20.9885,VALID,84,VALID,0,
2011-11-28, 01:18:04,VALID,915.461,VALID,0,VALID,97.2138,VALID,0,VALID,21.008,VALID,84,VALID,0,
2011-11-28, 01:19:04,VALID,915.418,VALID,0,VALID,97.1909,VALID,0.107441,VALID,21.0275,VALID,84,VALID,0,
2011-11-28, 01:20:04,VALID,915.421,VALID,0,VALID,97.1528,VALID,0,VALID,20.9869,VALID,84,VALID,0,
2011-11-28, 01:21:04,VALID,915.403,VALID,0,VALID,97.1604,VALID,0,VALID,20.9869,VALID,84,VALID,0,
2011-11-28, 01:22:04,VALID,915.366,VALID,0,VALID,97.0918,VALID,0.107441,VALID,20.9869,VALID,84,VALID,0,
2011-11-28, 01:23:04,VALID,915.357,VALID,0,VALID,97.0385,VALID,0.107441,VALID,20.9674,VALID,84,VALID,0,
2011-11-28, 01:24:04,VALID,915.315,VALID,0,VALID,97.0308,VALID,0.107441,VALID,20.9495,VALID,84,VALID,0,
2011-11-28, 01:25:04,VALID,915.296,VALID,0,VALID,97.0308,VALID,0.107441,VALID,20.9284,VALID,84,VALID,0,
2011-11-28, 01:26:04,VALID,915.275,VALID,0,VALID,97.0766,VALID,0.107441,VALID,20.9284,VALID,84,VALID,0,
2011-11-28, 01:27:04,VALID,915.285,VALID,0,VALID,97.1452,VALID,0.107441,VALID,20.9674,VALID,84,VALID,0,
2011-11-28, 01:28:04,VALID,915.293,VALID,0,VALID,97.1223,VALID,0.107441,VALID,21.0275,VALID,84,VALID,0,
2011-11-28, 01:29:04,VALID,915.278,VALID,0,VALID,97.0461,VALID,0.107441,VALID,21.0275,VALID,84,VALID,0,
2011-11-28, 01:30:04,VALID,915.27,VALID,0,VALID,96.9927,VALID,0.107441,VALID,20.9869,VALID,84,VALID,0,
2011-11-28, 01:31:04,VALID,915.259,VALID,0,VALID,96.9394,VALID,0.107441,VALID,20.9885,VALID,84,VALID,0.745703,
2011-11-28, 01:32:04,VALID,915.247,VALID,0,VALID,96.8784,VALID,0,VALID,20.9495,VALID,84,VALID,0.865625,
2011-11-28, 01:33:04,VALID,915.292,VALID,0,VALID,96.9165,VALID,0,VALID,20.93,VALID,84,VALID,0.531641,
2011-11-28, 01:34:04,VALID,915.261,VALID,0,VALID,96.9165,VALID,0,VALID,20.9105,VALID,84,VALID,0.500391,
2011-11-28, 01:35:04,VALID,915.26,VALID,0,VALID,96.9317,VALID,0.107441,VALID,20.8894,VALID,84,VALID,0.322656,
2011-11-28, 01:36:04,VALID,915.251,VALID,0,VALID,96.9622,VALID,0.107441,VALID,20.8894,VALID,84,VALID,0.20625,
2011-11-28, 01:37:04,VALID,915.268,VALID,0,VALID,97.008,VALID,0,VALID,20.93,VALID,84,VALID,0.00273437,
2011-11-28, 01:38:04,VALID,915.286,VALID,0,VALID,96.9622,VALID,0.107441,VALID,20.8894,VALID,84,VALID,0.0121094,
2011-11-28, 01:39:04,VALID,915.251,VALID,0,VALID,96.9927,VALID,0.107441,VALID,20.8894,VALID,84,VALID,0,
2011-11-28, 01:40:04,VALID,915.257,VALID,0,VALID,96.9927,VALID,0,VALID,20.9089,VALID,84,VALID,0,
2011-11-28, 01:41:04,VALID,915.226,VALID,0,VALID,97.0232,VALID,0,VALID,20.93,VALID,84,VALID,0.244531,
2011-11-28, 01:42:04,VALID,915.217,VALID,0,VALID,97.0232,VALID,0,VALID,20.9495,VALID,84,VALID,0.15625,
2011-11-28, 01:43:04,VALID,915.211,VALID,0,VALID,97.008,VALID,0,VALID,20.9495,VALID,84,VALID,0.223438,
2011-11-28, 01:44:04,VALID,915.214,VALID,0,VALID,97.0003,VALID,0.107441,VALID,20.969,VALID,84,VALID,0.165625,
2011-11-28, 01:45:04,VALID,915.204,VALID,0,VALID,97.008,VALID,0,VALID,20.969,VALID,84,VALID,0.215234,
2011-11-28, 01:46:04,VALID,915.169,VALID,0,VALID,96.9851,VALID,0.107441,VALID,20.9674,VALID,84,VALID,0.307031,
2011-11-28, 01:47:04,VALID,915.184,VALID,0,VALID,96.9394,VALID,0.107441,VALID,20.9284,VALID,84,VALID,0.428906,
2011-11-28, 01:48:04,VALID,915.142,VALID,0,VALID,96.9698,VALID,0,VALID,20.9479,VALID,84,VALID,0.0117188,
2011-11-28, 01:49:04,VALID,915.148,VALID,0,VALID,96.9775,VALID,0.107441,VALID,20.9479,VALID,84,VALID,0.219531,
2011-11-28, 01:50:04,VALID,915.128,VALID,0,VALID,96.9851,VALID,0.107441,VALID,20.9479,VALID,84,VALID,0,
2011-11-28, 01:51:04,VALID,915.131,VALID,0,VALID,97.008,VALID,0.107441,VALID,20.9479,VALID,84,VALID,0,
2011-11-28, 01:52:04,VALID,915.124,VALID,0,VALID,96.9851,VALID,0,VALID,20.969,VALID,84,VALID,0,
2011-11-28, 01:53:04,VALID,915.097,VALID,0,VALID,96.9241,VALID,0.107441,VALID,20.9284,VALID,84,VALID,0,
2011-11-28, 01:54:04,VALID,915.092,VALID,0,VALID,96.9546,VALID,0.107441,VALID,20.9495,VALID,84,VALID,0.00195313,
2011-11-28, 01:55:04,VALID,915.058,VALID,0,VALID,96.9317,VALID,0.107441,VALID,20.8894,VALID,84,VALID,0,
2011-11-28, 01:56:04,VALID,915.026,VALID,0,VALID,96.9012,VALID,0.107441,VALID,20.9105,VALID,84,VALID,0,
2011-11-28, 01:57:04,VALID,914.986,VALID,0,VALID,96.9317,VALID,0.107441,VALID,20.8504,VALID,84,VALID,0,
2011-11-28, 01:58:04,VALID,914.986,VALID,0,VALID,96.9394,VALID,0.107441,VALID,20.8309,VALID,84,VALID,0,
2011-11-28, 01:59:04,VALID,914.958,VALID,0,VALID,96.9851,VALID,0,VALID,20.8309,VALID,84,VALID,0,
2011-11-28, 02:00:04,VALID,914.937,VALID,0,VALID,96.9851,VALID,0,VALID,20.8324,VALID,84,VALID,0,
2011-11-28, 02:01:04,VALID,914.93,VALID,0,VALID,96.9927,VALID,0.107441,VALID,20.8129,VALID,84,VALID,0,
2011-11-28, 02:02:04,VALID,914.886,VALID,0,VALID,97.0156,VALID,0,VALID,20.7934,VALID,84,VALID,0,
2011-11-28, 02:03:04,VALID,914.903,VALID,0,VALID,97.008,VALID,0,VALID,20.8145,VALID,84,VALID,0,
2011-11-28, 02:04:04,VALID,914.872,VALID,0,VALID,97.0766,VALID,0,VALID,20.795,VALID,84,VALID,0,
2011-11-28, 02:05:04,VALID,914.905,VALID,0,VALID,97.0613,VALID,0,VALID,20.7739,VALID,84,VALID,0,
2011-11-28, 02:06:04,VALID,914.856,VALID,0,VALID,97.0994,VALID,0,VALID,20.8145,VALID,84,VALID,0,
2011-11-28, 02:07:04,VALID,914.828,VALID,0,VALID,97.0842,VALID,0,VALID,20.7934,VALID,84,VALID,0,
2011-11-28, 02:08:04,VALID,914.832,VALID,0,VALID,97.1147,VALID,0,VALID,20.8145,VALID,84,VALID,0,
2011-11-28, 02:09:04,VALID,914.819,VALID,0,VALID,97.1299,VALID,0,VALID,20.8129,VALID,84,VALID,0,
2011-11-28, 02:10:04,VALID,914.825,VALID,0,VALID,97.1528,VALID,0,VALID,20.873,VALID,84,VALID,0,
2011-11-28, 02:11:04,VALID,914.8,VALID,0,VALID,97.1833,VALID,0,VALID,20.8714,VALID,84,VALID,0,
2011-11-28, 02:12:04,VALID,914.825,VALID,0,VALID,97.1833,VALID,0,VALID,20.8925,VALID,84,VALID,0,
2011-11-28, 02:13:04,VALID,914.821,VALID,0,VALID,97.1604,VALID,0,VALID,20.891,VALID,84,VALID,0,
2011-11-28, 02:14:04,VALID,914.815,VALID,0,VALID,97.1604,VALID,0,VALID,20.9316,VALID,84,VALID,0,
2011-11-28, 02:15:04,VALID,914.79,VALID,0,VALID,97.1604,VALID,0,VALID,20.9316,VALID,84,VALID,0,
2011-11-28, 02:16:04,VALID,914.799,VALID,0,VALID,97.1223,VALID,0,VALID,20.93,VALID,84,VALID,0,
2011-11-28, 02:17:04,VALID,914.811,VALID,0,VALID,97.1299,VALID,0,VALID,20.93,VALID,84,VALID,0,
2011-11-28, 02:18:04,VALID,914.83,VALID,0,VALID,97.1376,VALID,0,VALID,20.9706,VALID,84,VALID,0,
2011-11-28, 02:19:04,VALID,914.817,VALID,0,VALID,97.1299,VALID,0,VALID,20.9901,VALID,84,VALID,0,
2011-11-28, 02:20:04,VALID,914.774,VALID,0,VALID,97.1071,VALID,0,VALID,21.0096,VALID,84,VALID,0,
2011-11-28, 02:21:04,VALID,914.789,VALID,0,VALID,97.0766,VALID,0,VALID,20.969,VALID,84,VALID,0,
2011-11-28, 02:22:04,VALID,914.783,VALID,0,VALID,97.0537,VALID,0,VALID,20.9901,VALID,84,VALID,0,
2011-11-28, 02:23:04,VALID,914.769,VALID,0,VALID,97.008,VALID,0,VALID,20.9901,VALID,84,VALID,0,
2011-11-28, 02:24:04,VALID,914.743,VALID,0,VALID,96.9622,VALID,0,VALID,20.9706,VALID,84,VALID,0.578906,
2011-11-28, 02:25:04,VALID,914.75,VALID,0,VALID,96.9698,VALID,0,VALID,20.93,VALID,84,VALID,0.804688,
2011-11-28, 02:26:04,VALID,914.712,VALID,0,VALID,96.9851,VALID,0,VALID,20.9316,VALID,84,VALID,0.616406,
2011-11-28, 02:27:04,VALID,914.685,VALID,0,VALID,97.008,VALID,0,VALID,20.9105,VALID,84,VALID,0.828516,
2011-11-28, 02:28:05,VALID,914.666,VALID,0,VALID,96.9851,VALID,0,VALID,20.891,VALID,71,VALID,0.735937,
2011-11-28, 02:29:05,VALID,914.652,VALID,0,VALID,97.0461,VALID,0,VALID,20.8714,VALID,71,VALID,0.61875,
2011-11-28, 02:30:05,VALID,914.627,VALID,0,VALID,97.0994,VALID,0,VALID,20.891,VALID,71,VALID,0.679688,
2011-11-28, 02:31:05,VALID,914.585,VALID,0,VALID,97.0461,VALID,0,VALID,20.912,VALID,71,VALID,0.651172,
2011-11-28, 02:32:05,VALID,914.624,VALID,0,VALID,97.0537,VALID,0,VALID,20.891,VALID,71,VALID,0.520703,
2011-11-28, 02:33:05,VALID,914.578,VALID,0,VALID,97.1223,VALID,0,VALID,20.9105,VALID,71,VALID,0.282422,
2011-11-28, 02:34:05,VALID,914.587,VALID,0,VALID,97.0613,VALID,0,VALID,20.9511,VALID,71,VALID,0.753906,
2011-11-28, 02:35:05,VALID,914.558,VALID,0,VALID,97.0994,VALID,0,VALID,20.9105,VALID,71,VALID,0.405469,
2011-11-28, 02:36:05,VALID,914.587,VALID,0,VALID,97.0994,VALID,0,VALID,20.9495,VALID,71,VALID,0.208594,
2011-11-28, 02:37:05,VALID,914.563,VALID,0,VALID,97.0385,VALID,0,VALID,20.9511,VALID,71,VALID,0.4875,
2011-11-28, 02:38:05,VALID,914.564,VALID,0,VALID,97.0003,VALID,0,VALID,20.912,VALID,71,VALID,0.184375,
2011-11-28, 02:39:05,VALID,914.582,VALID,0,VALID,97.0994,VALID,0,VALID,20.9316,VALID,71,VALID,0,
2011-11-28, 02:40:05,VALID,914.555,VALID,0,VALID,97.0766,VALID,0,VALID,20.9105,VALID,71,VALID,0.00429688,
2011-11-28, 02:41:05,VALID,914.569,VALID,0,VALID,97.0918,VALID,0,VALID,20.9105,VALID,71,VALID,0,
2011-11-28, 02:42:05,VALID,914.569,VALID,0,VALID,97.0918,VALID,0,VALID,20.9495,VALID,71,VALID,0,
2011-11-28, 02:43:05,VALID,914.541,VALID,0,VALID,97.0994,VALID,0,VALID,20.9495,VALID,71,VALID,0,
2011-11-28, 02:44:05,VALID,914.536,VALID,0,VALID,97.1071,VALID,0,VALID,20.9495,VALID,71,VALID,0.0972656,
2011-11-28, 02:45:05,VALID,914.537,VALID,0,VALID,97.0918,VALID,0,VALID,20.9495,VALID,71,VALID,0.182812,
2011-11-28, 02:46:05,VALID,914.548,VALID,0,VALID,97.0766,VALID,0,VALID,20.93,VALID,71,VALID,0.549219,
2011-11-28, 02:47:05,VALID,914.529,VALID,0,VALID,97.0842,VALID,0,VALID,20.9495,VALID,71,VALID,0.175781,
2011-11-28, 02:48:05,VALID,914.524,VALID,0,VALID,97.0766,VALID,0,VALID,20.9316,VALID,71,VALID,0.425,
2011-11-28, 02:49:05,VALID,914.567,VALID,0,VALID,97.0613,VALID,0,VALID,20.9316,VALID,71,VALID,0.274219,
2011-11-28, 02:50:05,VALID,914.563,VALID,0,VALID,97.069,VALID,0,VALID,20.9105,VALID,71,VALID,0.460156,
2011-11-28, 02:51:05,VALID,914.593,VALID,0,VALID,97.0994,VALID,0,VALID,20.9316,VALID,71,VALID,0.509766,
2011-11-28, 02:52:05,VALID,914.581,VALID,0,VALID,97.0994,VALID,0,VALID,20.9316,VALID,71,VALID,0.4625,
2011-11-28, 02:53:05,VALID,914.556,VALID,0,VALID,97.1376,VALID,0,VALID,20.93,VALID,71,VALID,0.189453,
2011-11-28, 02:54:05,VALID,914.59,VALID,0,VALID,97.1223,VALID,0,VALID,20.93,VALID,71,VALID,0.194531,
2011-11-28, 02:55:05,VALID,914.57,VALID,0,VALID,97.1147,VALID,0,VALID,20.9316,VALID,71,VALID,0.296094,
2011-11-28, 02:56:05,VALID,914.564,VALID,0,VALID,97.1223,VALID,0,VALID,20.9105,VALID,71,VALID,0,
2011-11-28, 02:57:05,VALID,914.533,VALID,0,VALID,97.1147,VALID,0,VALID,20.8894,VALID,71,VALID,0,
2011-11-28, 02:58:05,VALID,914.55,VALID,0,VALID,97.1376,VALID,0,VALID,20.93,VALID,71,VALID,0,
2011-11-28, 02:59:05,VALID,914.57,VALID,0,VALID,97.1299,VALID,0,VALID,20.8894,VALID,71,VALID,0,
2011-11-28, 03:00:05,VALID,914.578,VALID,0,VALID,97.1376,VALID,0,VALID,20.93,VALID,71,VALID,0.0191406,
2011-11-28, 03:01:05,VALID,914.581,VALID,0,VALID,97.1452,VALID,0,VALID,20.9105,VALID,71,VALID,0,
2011-11-28, 03:02:05,VALID,914.584,VALID,0,VALID,97.1376,VALID,0,VALID,20.9284,VALID,71,VALID,0,
2011-11-28, 03:03:05,VALID,914.551,VALID,0,VALID,97.1833,VALID,0.107441,VALID,20.9901,VALID,71,VALID,0,
2011-11-28, 03:04:05,VALID,914.602,VALID,0,VALID,97.1833,VALID,0.107441,VALID,20.9674,VALID,71,VALID,0,
2011-11-28, 03:05:05,VALID,914.581,VALID,0,VALID,97.1299,VALID,0,VALID,20.9885,VALID,71,VALID,0,
2011-11-28, 03:06:05,VALID,914.576,VALID,0,VALID,97.1223,VALID,0,VALID,20.9885,VALID,71,VALID,0,
2011-11-28, 03:07:05,VALID,914.564,VALID,0,VALID,97.1452,VALID,0.107441,VALID,20.9674,VALID,71,VALID,0,
2011-11-28, 03:08:05,VALID,914.569,VALID,0,VALID,97.1452,VALID,0,VALID,20.9674,VALID,71,VALID,0,
2011-11-28, 03:09:05,VALID,914.551,VALID,0,VALID,97.1299,VALID,0,VALID,20.969,VALID,71,VALID,0.29375,
2011-11-28, 03:10:05,VALID,914.571,VALID,0,VALID,97.0994,VALID,0.107441,VALID,20.9479,VALID,71,VALID,0.314453,
2011-11-28, 03:11:05,VALID,914.565,VALID,0,VALID,97.1147,VALID,0,VALID,20.9495,VALID,71,VALID,0.397656,
2011-11-28, 03:12:05,VALID,914.556,VALID,0,VALID,97.1223,VALID,0,VALID,20.9495,VALID,71,VALID,0.432813,
2011-11-28, 03:13:05,VALID,914.576,VALID,0,VALID,97.1223,VALID,0.107441,VALID,20.9089,VALID,71,VALID,0.225781,
2011-11-28, 03:14:05,VALID,914.59,VALID,0,VALID,97.1147,VALID,0.107441,VALID,20.9105,VALID,71,VALID,0.473437,
2011-11-28, 03:15:05,VALID,914.6,VALID,0,VALID,97.1299,VALID,0.107441,VALID,20.9089,VALID,71,VALID,0.223438,
2011-11-28, 03:16:05,VALID,914.596,VALID,0,VALID,97.1223,VALID,0.107441,VALID,20.9089,VALID,71,VALID,0,
2011-11-28, 03:17:05,VALID,914.556,VALID,0,VALID,97.1376,VALID,0,VALID,20.9089,VALID,71,VALID,0.166016,
2011-11-28, 03:18:05,VALID,914.567,VALID,0,VALID,97.1299,VALID,0.107441,VALID,20.9089,VALID,71,VALID,0.369531,
2011-11-28, 03:19:05,VALID,914.535,VALID,0,VALID,97.1528,VALID,0.107441,VALID,20.8894,VALID,71,VALID,0.549609,
2011-11-28, 03:20:05,VALID,914.521,VALID,0,VALID,97.1681,VALID,0.107441,VALID,20.8894,VALID,71,VALID,0.273438,
2011-11-28, 03:21:05,VALID,914.498,VALID,0,VALID,97.1986,VALID,0.107441,VALID,20.9089,VALID,71,VALID,0.451562,
2011-11-28, 03:22:05,VALID,914.519,VALID,0,VALID,97.1681,VALID,0.107441,VALID,20.93,VALID,71,VALID,0.523828,
2011-11-28, 03:23:05,VALID,914.509,VALID,0,VALID,97.1681,VALID,0.107441,VALID,20.9105,VALID,71,VALID,0.383594,
2011-11-28, 03:24:05,VALID,914.482,VALID,0,VALID,97.1528,VALID,0,VALID,20.8699,VALID,71,VALID,0.466406,
2011-11-28, 03:25:05,VALID,914.484,VALID,0,VALID,97.1757,VALID,0,VALID,20.891,VALID,71,VALID,0.579297,
2011-11-28, 03:26:05,VALID,914.48,VALID,0,VALID,97.1909,VALID,0,VALID,20.8488,VALID,71,VALID,0.537109,
2011-11-28, 03:27:05,VALID,914.488,VALID,0,VALID,97.1986,VALID,0.107441,VALID,20.891,VALID,71,VALID,0.295312,
2011-11-28, 03:28:05,VALID,914.51,VALID,0,VALID,97.2214,VALID,0.107441,VALID,20.8504,VALID,71,VALID,0.285937,
2011-11-28, 03:29:05,VALID,914.501,VALID,0,VALID,97.1909,VALID,0,VALID,20.8309,VALID,71,VALID,0.370703,
2011-11-28, 03:30:05,VALID,914.485,VALID,0,VALID,97.2214,VALID,0,VALID,20.8925,VALID,71,VALID,0.326172,
2011-11-28, 03:31:05,VALID,914.479,VALID,0,VALID,97.2214,VALID,0.107441,VALID,20.8098,VALID,71,VALID,0.486328,
2011-11-28, 03:32:05,VALID,914.496,VALID,0,VALID,97.2367,VALID,0,VALID,20.8519,VALID,71,VALID,0.0535156,
2011-11-28, 03:33:05,VALID,914.483,VALID,0,VALID,97.2824,VALID,0,VALID,20.8714,VALID,71,VALID,0.0945313,
2011-11-28, 03:34:05,VALID,914.469,VALID,0,VALID,97.2672,VALID,0,VALID,20.9331,VALID,71,VALID,0.294922,
2011-11-28, 03:35:05,VALID,914.464,VALID,0,VALID,97.2672,VALID,0,VALID,20.891,VALID,71,VALID,0.158594,
2011-11-28, 03:36:05,VALID,914.449,VALID,0,VALID,97.2367,VALID,0,VALID,20.9136,VALID,71,VALID,0,
2011-11-28, 03:37:05,VALID,914.443,VALID,0,VALID,97.2367,VALID,0,VALID,20.8519,VALID,71,VALID,0.479688,
2011-11-28, 03:38:05,VALID,914.41,VALID,0,VALID,97.2214,VALID,0,VALID,20.8941,VALID,71,VALID,0.843359,
2011-11-28, 03:39:05,VALID,914.388,VALID,0,VALID,97.2672,VALID,0,VALID,20.834,VALID,71,VALID,0.673828,
2011-11-28, 03:40:05,VALID,914.403,VALID,0,VALID,97.3129,VALID,0,VALID,20.9981,VALID,71,VALID,0.683984,
2011-11-28, 03:41:05,VALID,914.382,VALID,0,VALID,97.351,VALID,0,VALID,20.9722,VALID,71,VALID,1.03477,
2011-11-28, 03:42:05,VALID,914.362,VALID,0,VALID,97.2748,VALID,0,VALID,21.0371,VALID,71,VALID,0.811719,
2011-11-28, 03:43:05,VALID,914.373,VALID,0,VALID,97.2443,VALID,0,VALID,20.891,VALID,71,VALID,0.935547,
2011-11-28, 03:44:05,VALID,914.341,VALID,0,VALID,97.3281,VALID,0,VALID,20.9331,VALID,71,VALID,0.714453,
2011-11-28, 03:45:05,VALID,914.365,VALID,0,VALID,97.2824,VALID,0,VALID,20.93,VALID,71,VALID,0.608594,
2011-11-28, 03:46:05,VALID,914.347,VALID,0,VALID,97.2519,VALID,0,VALID,20.9542,VALID,71,VALID,0.583984,
2011-11-28, 03:47:05,VALID,914.357,VALID,0,VALID,97.2443,VALID,0,VALID,20.8925,VALID,71,VALID,0.237109,
2011-11-28, 03:48:05,VALID,914.386,VALID,0,VALID,97.2443,VALID,0,VALID,20.8941,VALID,71,VALID,0.0542969,
2011-11-28, 03:49:05,VALID,914.363,VALID,0,VALID,97.2672,VALID,0,VALID,20.873,VALID,71,VALID,0.374219,